QPF
0.02 0.01 0.02 0.05 0.02 0.02 0.00 0.00 0.00 0.00 0.00 0.00 0.00 0.00 0.00 0.00 0.00 0.00 0.00 0.00 0.00 0.00 0.00 0.00 0.00 0.00 0.00 0.00 0.00 0.00 0.00 0.00 0.01 0.00 0.00 0.00 0.00 0.00 0.00 0.01 0.06 0.12 0.09
0.02 0.10 0.12 0.09 0.02 0.02 0.00 0.00 0.00 0.01 0.01 0.00 0.00 0.00 0.00 0.00 0.00 0.00 0.00 0.00 0.00 0.00 0.00 0.00 0.00 0.00 0.00 0.00 0.00 0.00 0.00 0.00 0.00 0.00 0.00 0.00 0.00 0.00 0.00 0.00 0.00 0.00 0.02
0.37 0.28 0.20 0.10 0.02 0.00 0.00 0.00 0.02 0.04 0.01 0.01 0.00 0.00 0.00 0.00 0.00 0.00 0.00 0.00 0.00 0.00 0.00 0.00 0.00 0.00 0.00 0.00 0.00 0.00 0.00 0.00 0.00 0.00 0.00 0.00 0.00 0.00 0.00 0.00 0.00 0.00 0.00
0.47 0.55 0.51 0.22 0.02 0.00 0.00 0.00 0.01 0.05 0.07 0.04 0.00 0.00 0.00 0.00 0.00 0.00 0.00 0.00 0.00 0.00 0.00 0.00 0.00 0.00 0.00 0.00 0.00 0.00 0.00 0.00 0.00 0.00 0.00 0.00 0.00 0.00 0.00 0.00 0.00 0.00 0.00
0.93 0.91 0.68 0.17 0.01 0.00 0.00 0.02 0.04 0.07 0.03 0.00 0.00 0.00 0.00 0.00 0.00 0.00 0.00 0.00 0.00 0.00 0.00 0.00 0.00 0.00 0.00 0.00 0.00 0.00 0.00 0.00 0.00 0.00 0.00 0.00 0.00 0.00 0.00 0.00 0.00 0.00 0.00
0.63 0.60 0.45 0.19 0.01 0.02 0.08 0.05 0.01 0.00 0.00 0.00 0.00 0.00 0.00 0.00 0.00 0.00 0.00 0.00 0.00 0.00 0.00 0.00 0.00 0.00 0.00 0.00 0.00 0.00 0.00 0.00 0.00 0.00 0.00 0.00 0.00 0.00 0.00 0.00 0.00 0.00 0.00
0.01 0.00 0.00 0.01 0.02 0.03 0.06 0.03 0.01 0.00 0.00 0.00 0.00 0.00 0.00 0.00 0.00 0.00 0.00 0.00 0.00 0.00 0.00 0.00 0.00 0.00 0.00 0.00 0.00 0.00 0.00 0.00 0.00 0.00 0.00 0.00 0.00 0.00 0.00 0.01 0.00 0.00 0.00
0.03 0.00 0.01 0.06 0.06 0.08 0.09 0.06 0.00 0.00 0.00 0.00 0.00 0.00 0.00 0.00 0.00 0.00 0.00 0.00 0.00 0.00 0.00 0.00 0.00 0.00 0.00 0.00 0.00 0.00 0.00 0.00 0.00 0.00 0.00 0.00 0.00 0.00 0.00 0.01 0.01 0.01 0.00
0.01 0.00 0.02 0.01 0.03 0.06 0.04 0.01 0.00 0.00 0.00 0.00 0.00 0.00 0.00 0.00 0.00 0.00 0.00 0.00 0.00 0.00 0.00 0.00 0.00 0.00 0.00 0.00 0.00 0.00 0.00 0.00 0.00 0.00 0.00 0.00 0.00 0.00 0.00 0.01 0.01 0.01 0.01
0.00 0.02 0.03 0.01 0.05 0.04 0.02 0.00 0.00 0.00 0.00 0.00 0.00 0.00 0.00 0.00 0.00 0.00 0.00 0.00 0.00 0.00 0.00 0.00 0.00 0.00 0.00 0.00 0.00 0.00 0.00 0.00 0.00 0.00 0.00 0.00 0.00 0.00 0.00 0.00 0.00 0.01 0.01
0.00 0.01 0.02 0.06 0.08 0.04 0.00 0.00 0.00 0.00 0.00 0.00 0.00 0.00 0.00 0.00 0.00 0.00 0.00 0.00 0.00 0.00 0.00 0.00 0.00 0.00 0.00 0.00 0.00 0.00 0.00 0.00 0.00 0.00 0.00 0.00 0.00 0.00 0.00 0.00 0.00 0.00 0.01
0.01 0.03 0.02 0.05 0.03 0.00 0.00 0.00 0.00 0.00 0.00 0.00 0.00 0.00 0.00 0.00 0.00 0.00 0.00 0.00 0.00 0.00 0.00 0.00 0.00 0.00 0.00 0.00 0.00 0.00 0.00 0.00 0.00 0.00 0.00 0.00 0.00 0.00 0.00 0.00 0.00 0.00 0.00
0.05 0.06 0.02 0.03 0.00 0.00 0.00 0.00 0.00 0.00 0.00 0.00 0.00 0.00 0.00 0.00 0.00 0.00 0.00 0.00 0.00 0.00 0.00 0.00 0.00 0.00 0.00 0.00 0.00 0.00 0.00 0.00 0.00 0.00 0.00 0.00 0.00 0.00 0.00 0.00 0.00 0.00 0.00
0.03 0.01 0.00 0.00 0.00 0.00 0.00 0.00 0.00 0.00 0.00 0.00 0.00 0.00 0.00 0.00 0.00 0.00 0.00 0.00 0.00 0.00 0.00 0.00 0.00 0.00 0.00 0.00 0.00 0.00 0.00 0.00 0.00 0.00 0.00 0.00 0.00 0.00 0.00 0.00 0.00 0.00 0.00
0.00 0.00 0.00 0.00 0.00 0.00 0.00 0.00 0.00 0.00 0.00 0.00 0.00 0.00 0.00 0.00 0.00 0.00 0.00 0.00 0.00 0.00 0.00 0.00 0.00 0.00 0.00 0.00 0.00 0.00 0.00 0.00 0.00 0.00 0.00 0.00 0.00 0.00 0.00 0.00 0.00 0.00 0.00
0.00 0.00 0.00 0.00 0.00 0.00 0.00 0.00 0.00 0.00 0.00 0.00 0.00 0.00 0.00 0.00 0.00 0.00 0.00 0.00 0.00 0.00 0.00 0.00 0.00 0.00 0.00 0.00 0.00 0.00 0.00 0.00 0.00 0.00 0.00 0.00 0.00 0.00 0.00 0.00 0.00 0.00 0.00
0.00 0.00 0.00 0.00 0.00 0.00 0.00 0.00 0.00 0.00 0.00 0.00 0.00 0.00 0.00 0.00 0.00 0.00 0.00 0.00 0.00 0.00 0.00 0.00 0.00 0.00 0.00 0.00 0.00 0.00 0.00 0.00 0.00 0.00 0.00 0.00 0.00 0.00 0.00 0.00 0.00 0.00 0.00
0.00 0.00 0.00 0.00 0.00 0.00 0.00 0.00 0.00 0.00 0.00 0.00 0.00 0.00 0.00 0.00 0.00 0.00 0.00 0.00 0.00 0.00 0.00 0.00 0.00 0.00 0.00 0.00 0.00 0.00 0.00 0.00 0.00 0.00 0.00 0.00 0.00 0.00 0.00 0.00 0.00 0.00 0.00
0.00 0.00 0.00 0.00 0.00 0.00 0.00 0.00 0.00 0.00 0.00 0.00 0.00 0.00 0.00 0.00 0.00 0.00 0.00 0.00 0.00 0.00 0.00 0.00 0.00 0.00 0.00 0.00 0.00 0.00 0.00 0.00 0.00 0.00 0.00 0.00 0.00 0.00 0.00 0.00 0.00 0.00 0.00
0.00 0.00 0.00 0.00 0.00 0.00 0.00 0.00 0.00 0.00 0.00 0.00 0.00 0.00 0.00 0.00 0.00 0.00 0.00 0.00 0.00 0.00 0.00 0.00 0.00 0.00 0.00 0.00 0.00 0.00 0.00 0.00 0.00 0.00 0.00 0.00 0.00 0.00 0.00 0.00 0.00 0.00 0.00
0.00 0.00 0.00 0.00 0.00 0.00 0.00 0.00 0.00 0.00 0.00 0.00 0.00 0.00 0.00 0.00 0.00 0.00 0.00 0.00 0.00 0.00 0.00 0.00 0.00 0.00 0.00 0.00 0.00 0.00 0.00 0.00 0.00 0.00 0.00 0.00 0.00 0.00 0.00 0.00 0.00 0.00 0.00
0.00 0.00 0.00 0.00 0.00 0.00 0.00 0.00 0.00 0.00 0.00 0.00 0.00 0.00 0.00 0.00 0.00 0.00 0.00 0.00 0.00 0.00 0.00 0.00 0.00 0.00 0.00 0.00 0.00 0.00 0.00 0.00 0.00 0.00 0.00 0.00 0.00 0.00 0.00 0.00 0.00 0.00 0.00
0.00 0.00 0.00 0.00 0.00 0.00 0.00 0.00 0.00 0.00 0.00 0.00 0.00 0.00 0.00 0.00 0.00 0.00 0.00 0.00 0.00 0.00 0.00 0.00 0.00 0.00 0.00 0.00 0.00 0.00 0.00 0.00 0.00 0.00 0.00 0.00 0.00 0.00 0.00 0.00 0.00 0.00 0.00
0.00 0.00 0.00 0.00 0.00 0.00 0.00 0.00 0.00 0.00 0.00 0.00 0.00 0.00 0.00 0.00 0.00 0.00 0.00 0.00 0.00 0.00 0.00 0.00 0.00 0.00 0.00 0.00 0.00 0.00 0.00 0.00 0.00 0.00 0.00 0.00 0.00 0.00 0.00 0.00 0.00 0.00 0.00
0.00 0.00 0.00 0.00 0.00 0.00 0.00 0.00 0.00 0.00 0.00 0.00 0.00 0.00 0.00 0.00 0.00 0.00 0.00 0.00 0.00 0.00 0.00 0.00 0.00 0.00 0.00 0.00 0.00 0.00 0.00 0.00 0.00 0.00 0.00 0.00 0.00 0.00 0.00 0.00 0.00 0.00 0.00
0.00 0.00 0.00 0.00 0.00 0.00 0.00 0.00 0.00 0.00 0.00 0.00 0.00 0.00 0.00 0.00 0.00 0.00 0.00 0.00 0.00 0.00 0.00 0.00 0.00 0.00 0.00 0.00 0.00 0.00 0.00 0.00 0.00 0.00 0.00 0.00 0.00 0.00 0.00 0.00 0.00 0.00 0.00
MSLP
1011.51 1012.24 1012.84 1013.17 1013.57 1014.03 1014.52 1014.90 1015.18 1015.33 1015.48 1015.72 1015.94 1015.96 1016.01 1016.09 1016.31 1016.42 1016.46 1016.46 1016.38 1016.24 1016.05 1015.87 1015.67 1015.58 1015.21 1014.86 1014.51 1014.04 1013.58 1013.48 1012.74 1012.18 1012.03 1011.27 1010.85 1010.41 1010.09 1009.92 1009.72 1009.42 1009.18
1011.34 1012.02 1012.64 1013.01 1013.60 1014.19 1014.43 1014.84 1015.17 1015.39 1015.67 1015.86 1015.92 1016.13 1016.36 1016.47 1016.57 1016.64 1016.71 1016.86 1016.92 1016.79 1016.61 1016.29 1016.19 1016.06 1015.96 1015.66 1015.13 1014.87 1014.38 1014.06 1013.77 1012.79 1012.33 1011.89 1011.06 1010.65 1010.21 1009.82 1009.49 1009.23 1008.99
1012.69 1013.11 1013.25 1013.13 1013.52 1014.04 1014.53 1014.91 1015.10 1015.60 1016.01 1016.28 1016.49 1016.71 1016.86 1016.87 1016.86 1017.09 1017.23 1017.30 1017.37 1017.39 1017.27 1016.95 1016.96 1016.97 1016.74 1016.25 1015.77 1015.25 1014.74 1014.42 1013.92 1013.28 1012.35 1011.84 1011.21 1010.67 1010.25 1009.65 1009.50 1009.23 1008.96
1012.43 1013.24 1014.05 1013.89 1013.73 1014.16 1014.72 1015.03 1015.35 1015.92 1016.49 1016.81 1017.20 1017.41 1017.46 1017.53 1017.51 1017.35 1017.61 1017.68 1017.57 1017.51 1017.49 1017.42 1017.36 1017.34 1017.19 1016.81 1016.08 1015.70 1015.26 1014.78 1014.10 1013.53 1012.78 1012.05 1011.42 1011.00 1010.62 1009.88 1009.35 1009.03 1008.64
1012.00 1012.99 1014.10 1014.53 1014.64 1014.72 1015.26 1015.45 1015.74 1016.42 1016.78 1017.18 1017.48 1017.81 1017.94 1017.99 1018.03 1018.00 1018.03 1018.17 1018.02 1017.89 1017.89 1017.76 1017.78 1017.94 1017.74 1017.53 1016.79 1016.22 1015.78 1015.33 1014.65 1014.08 1013.26 1012.67 1012.03 1011.66 1011.20 1010.86 1010.08 1009.40 1008.89
1012.30 1012.53 1013.41 1014.10 1014.66 1014.66 1015.56 1015.85 1016.23 1016.56 1017.14 1017.34 1017.79 1018.07 1018.09 1018.23 1018.72 1018.32 1018.13 1018.23 1018.37 1018.21 1018.03 1018.06 1017.89 1017.94 1017.72 1017.50 1017.29 1016.87 1016.69 1016.10 1015.55 1015.18 1014.62 1014.08 1013.46 1013.01 1012.08 1011.41 1010.93 1010.00 1008.71
1012.48 1013.33 1014.08 1013.75 1014.85 1015.21 1015.61 1016.16 1016.44 1017.08 1017.65 1017.78 1018.29 1018.52 1018.82 1019.02 1019.30 1019.06 1018.87 1018.87 1018.79 1018.74 1018.56 1018.30 1017.96 1018.00 1017.87 1017.44 1017.22 1016.89 1016.51 1016.42 1016.24 1015.60 1014.78 1014.31 1013.82 1013.33 1012.96 1012.15 1011.56 1010.78 1009.74
1011.57 1012.91 1013.12 1013.80 1014.80 1015.33 1015.98 1016.37 1017.06 1017.49 1017.84 1018.28 1018.79 1018.97 1019.05 1019.47 1019.50 1019.26 1019.08 1019.03 1019.08 1019.03 1019.15 1018.92 1018.79 1018.58 1018.40 1017.93 1017.28 1016.82 1016.29 1015.90 1015.93 1015.67 1015.29 1014.70 1014.19 1013.79 1013.17 1012.72 1011.75 1010.89 1010.20
1012.28 1012.53 1012.56 1013.39 1014.56 1015.13 1015.80 1016.80 1017.32 1017.64 1017.88 1018.35 1018.67 1018.99 1019.40 1019.57 1019.69 1019.50 1019.10 1019.05 1019.12 1019.23 1019.39 1019.41 1019.03 1018.77 1018.67 1018.38 1017.62 1017.03 1016.37 1015.95 1015.59 1015.53 1015.16 1014.65 1014.22 1013.77 1013.32 1012.57 1011.92 1011.31 1010.13
1012.15 1012.19 1012.70 1013.45 1014.11 1014.95 1015.75 1016.60 1017.30 1017.77 1018.13 1018.62 1018.87 1019.16 1019.62 1019.66 1019.94 1019.71 1019.38 1019.10 1019.06 1018.78 1019.00 1019.13 1019.29 1019.15 1018.92 1018.72 1018.03 1017.46 1016.78 1016.27 1015.69 1014.95 1014.36 1013.74 1013.21 1012.77 1012.70 1012.53 1012.05 1011.81 1011.14
1011.26 1012.15 1013.04 1013.98 1014.69 1015.15 1015.94 1016.68 1017.47 1018.04 1018.36 1018.43 1019.08 1019.47 1019.42 1019.38 1019.77 1019.85 1019.83 1019.60 1019.41 1019.27 1019.07 1018.97 1018.93 1019.24 1019.04 1018.78 1018.31 1017.55 1017.24 1016.67 1015.51 1014.57 1013.82 1013.38 1013.01 1012.62 1012.43 1012.35 1012.22 1011.98 1011.42
1011.29 1012.34 1013.34 1014.13 1014.46 1015.21 1015.93 1016.88 1017.78 1018.49 1018.71 1018.94 1019.35 1019.73 1019.97 1020.17 1020.34 1020.34 1020.47 1020.44 1020.31 1019.93 1019.41 1019.09 1019.02 1019.10 1018.79 1018.44 1017.76 1017.35 1016.89 1016.10 1015.17 1014.35 1013.65 1013.11 1012.73 1012.30 1012.06 1011.81 1011.56 1011.30 1010.90
1011.70 1012.45 1013.31 1014.15 1014.95 1015.74 1016.48 1017.26 1017.81 1018.32 1018.20 1018.67 1018.94 1019.12 1019.21 1019.36 1019.26 1019.30 1019.49 1019.73 1019.93 1019.64 1019.09 1018.87 1018.77 1018.47 1018.13 1017.60 1017.18 1016.92 1016.39 1015.50 1014.99 1014.37 1013.79 1013.29 1013.03 1012.57 1012.13 1011.44 1010.83 1010.48 1009.74
1011.87 1012.84 1013.82 1014.44 1015.21 1015.85 1016.57 1017.19 1017.36 1017.82 1018.05 1018.55 1018.66 1018.48 1018.69 1018.87 1018.85 1018.80 1018.83 1018.89 1018.92 1018.95 1018.46 1017.81 1017.70 1017.61 1017.14 1016.73 1016.43 1015.83 1015.46 1015.08 1014.82 1014.39 1013.83 1013.40 1012.86 1012.22 1011.72 1011.39 1010.86 1010.26 1009.47
1012.40 1013.36 1014.30 1015.05 1015.33 1015.94 1016.59 1016.85 1017.21 1017.72 1017.68 1017.84 1018.20 1018.39 1018.44 1018.41 1018.46 1018.78 1018.70 1018.57 1018.54 1018.33 1018.19 1017.13 1016.29 1015.89 1015.71 1015.36 1015.06 1014.80 1014.61 1014.35 1014.09 1013.77 1013.37 1012.71 1012.13 1011.52 1011.09 1011.14 1011.20 1010.46 1009.46
1012.57 1013.40 1013.88 1014.57 1015.27 1016.00 1016.69 1017.39 1017.68 1017.83 1017.94 1018.31 1018.59 1018.49 1018.14 1018.41 1018.59 1018.61 1018.80 1018.72 1018.51 1018.45 1017.58 1016.54 1015.52 1015.16 1015.03 1014.80 1014.42 1013.99 1013.75 1013.59 1013.28 1013.14 1012.76 1012.24 1011.69 1011.13 1010.71 1010.48 1010.39 1009.98 1008.95
1012.37 1013.36 1014.18 1014.83 1015.52 1016.01 1016.33 1016.51 1017.22 1017.59 1017.99 1018.09 1018.21 1018.24 1018.44 1018.34 1018.43 1018.47 1018.34 1018.15 1017.98 1018.13 1017.36 1016.08 1015.27 1014.71 1014.30 1014.20 1014.06 1013.71 1013.28 1013.05 1013.12 1012.77 1012.25 1011.73 1011.24 1010.75 1010.46 1009.86 1009.41 1009.14 1008.18
1012.93 1013.69 1014.30 1014.72 1015.15 1015.68 1016.47 1016.55 1016.78 1017.46 1017.47 1017.82 1017.52 1017.71 1017.71 1017.74 1017.53 1017.43 1017.50 1017.37 1016.37 1016.65 1015.97 1015.41 1014.93 1014.57 1014.21 1013.87 1013.65 1013.32 1012.94 1012.72 1012.36 1012.02 1011.66 1011.21 1010.82 1010.47 1010.06 1009.51 1008.90 1008.26 1007.58
1013.13 1013.72 1013.99 1014.62 1015.40 1015.81 1015.99 1016.25 1016.72 1017.35 1017.44 1016.92 1016.65 1016.81 1016.85 1017.10 1017.01 1016.81 1016.86 1016.39 1015.75 1015.33 1014.92 1014.70 1014.47 1014.27 1013.95 1013.64 1013.34 1013.14 1012.92 1012.49 1012.27 1011.97 1011.32 1010.81 1010.44 1010.09 1009.75 1009.35 1008.55 1007.98 1007.33
1013.31 1013.79 1014.04 1014.74 1015.42 1015.67 1015.86 1016.40 1016.63 1016.14 1016.17 1016.08 1015.86 1015.80 1015.90 1016.06 1015.81 1015.61 1015.29 1015.35 1015.32 1015.06 1014.64 1014.45 1014.32 1014.27 1013.99 1013.66 1013.34 1013.00 1012.59 1012.14 1011.62 1011.23 1010.91 1010.59 1010.17 1009.97 1009.84 1008.99 1008.18 1007.35 1006.53
1013.16 1013.96 1014.27 1014.55 1014.92 1015.25 1015.61 1015.75 1015.60 1015.56 1015.33 1015.27 1015.19 1015.21 1015.65 1015.66 1015.13 1014.96 1015.00 1014.78 1014.85 1014.77 1014.71 1014.57 1014.46 1014.30 1013.96 1013.64 1013.38 1012.93 1012.52 1011.97 1011.52 1011.21 1010.91 1010.69 1010.65 1010.10 1009.26 1008.46 1007.74 1006.89 1006.00
1013.14 1013.46 1014.01 1014.17 1014.64 1014.94 1014.96 1015.17 1015.20 1015.06 1014.82 1014.69 1014.46 1014.38 1015.06 1015.08 1014.53 1014.42 1014.49 1014.50 1014.63 1014.80 1014.64 1014.73 1014.51 1014.22 1013.96 1013.80 1013.51 1013.15 1012.63 1012.17 1011.91 1011.81 1011.57 1010.95 1010.34 1009.50 1008.76 1008.00 1007.28 1006.34 1005.43
1012.97 1013.12 1013.68 1014.16 1014.54 1014.71 1014.69 1014.71 1014.50 1014.56 1014.47 1014.31 1014.21 1013.98 1013.94 1013.86 1014.00 1014.21 1014.41 1014.48 1014.67 1014.66 1014.63 1014.72 1014.51 1014.20 1013.99 1013.92 1013.70 1013.40 1013.03 1012.60 1012.39 1012.22 1011.43 1010.42 1009.71 1009.01 1008.38 1007.63 1007.07 1005.78 1004.88
1012.64 1013.08 1013.73 1014.02 1014.29 1014.22 1014.16 1014.19 1014.06 1014.42 1014.38 1013.91 1013.69 1013.67 1013.65 1013.82 1013.98 1014.29 1014.53 1014.67 1014.79 1014.63 1014.72 1014.72 1014.45 1014.33 1014.15 1013.89 1013.50 1013.20 1012.99 1013.00 1012.96 1012.01 1011.36 1010.57 1009.69 1008.76 1007.98 1007.40 1006.66 1005.38 1004.45
1012.92 1013.45 1013.59 1013.68 1013.91 1013.89 1013.95 1013.76 1013.72 1014.02 1013.92 1013.60 1013.47 1013.55 1013.57 1013.78 1014.08 1014.39 1014.62 1014.68 1014.56 1014.54 1014.54 1014.49 1014.24 1014.08 1013.81 1013.76 1013.47 1013.24 1013.24 1013.34 1012.89 1012.42 1011.26 1010.30 1009.45 1008.70 1007.83 1007.34 1006.38 1005.12 1004.08
1013.06 1013.31 1013.37 1013.52 1013.73 1013.85 1013.76 1013.63 1013.68 1013.66 1013.39 1013.28 1013.34 1013.38 1013.56 1013.75 1014.10 1014.35 1014.43 1014.43 1014.45 1014.39 1014.35 1014.15 1014.07 1013.99 1013.72 1013.27 1013.08 1013.40 1013.12 1012.76 1012.27 1011.92 1011.25 1010.02 1009.06 1008.22 1007.51 1006.91 1005.98 1004.86 1003.66
Thickness
5783 5778 5772 5770 5766 5761 5755 5751 5747 5745 5742 5738 5735 5734 5731 5729 5728 5726 5725 5725 5724 5723 5724 5724 5724 5724 5725 5726 5728 5729 5731 5728 5728 5733 5736 5743 5744 5745 5748 5748 5749 5751 5751
5782 5776 5770 5767 5762 5756 5752 5748 5744 5741 5738 5735 5733 5729 5727 5725 5722 5720 5717 5715 5712 5711 5711 5713 5713 5713 5712 5714 5716 5714 5716 5719 5716 5720 5725 5729 5735 5738 5740 5742 5745 5745 5746
5759 5758 5760 5760 5757 5752 5747 5745 5742 5735 5729 5726 5723 5720 5717 5716 5715 5711 5708 5706 5704 5702 5701 5702 5699 5697 5697 5701 5704 5705 5708 5710 5713 5715 5719 5723 5728 5733 5734 5738 5737 5738 5739
5763 5751 5740 5745 5749 5747 5744 5741 5736 5729 5721 5717 5713 5709 5707 5705 5704 5704 5700 5697 5697 5696 5694 5693 5691 5690 5689 5690 5695 5696 5698 5699 5704 5707 5711 5715 5718 5721 5723 5726 5728 5733 5733
5756 5733 5731 5728 5733 5737 5732 5732 5729 5722 5717 5711 5708 5702 5698 5694 5692 5691 5690 5686 5687 5688 5688 5686 5683 5678 5678 5677 5682 5684 5685 5686 5691 5693 5698 5700 5704 5705 5707 5711 5714 5719 5722
5747 5733 5728 5727 5728 5729 5721 5721 5720 5717 5710 5706 5700 5695 5693 5689 5681 5684 5684 5681 5678 5678 5678 5676 5676 5672 5672 5671 5670 5672 5671 5673 5675 5675 5676 5677 5680 5683 5692 5697 5699 5704 5710
5745 5735 5726 5734 5724 5719 5716 5713 5712 5706 5699 5696 5690 5686 5681 5677 5671 5672 5671 5669 5668 5666 5666 5667 5667 5664 5662 5664 5663 5664 5665 5663 5662 5665 5668 5669 5670 5671 5672 5677 5681 5688 5695
5753 5739 5739 5734 5724 5721 5714 5711 5704 5699 5693 5687 5681 5678 5675 5669 5666 5666 5664 5662 5658 5656 5652 5653 5651 5651 5650 5651 5653 5654 5656 5657 5654 5654 5655 5657 5659 5659 5661 5662 5669 5675 5681
5741 5739 5742 5735 5723 5719 5713 5702 5696 5692 5687 5681 5677 5672 5664 5661 5657 5656 5658 5656 5651 5647 5643 5641 5642 5642 5640 5639 5643 5643 5644 5643 5641 5640 5642 5643 5644 5646 5648 5652 5654 5657 5665
5739 5737 5735 5730 5725 5716 5707 5698 5690 5684 5679 5673 5669 5664 5656 5654 5648 5648 5649 5649 5646 5645 5640 5636 5630 5629 5628 5625 5628 5629 5631 5631 5632 5633 5633 5633 5635 5637 5635 5635 5638 5638 5640
5747 5736 5728 5718 5712 5707 5699 5691 5682 5675 5671 5667 5658 5653 5653 5651 5645 5640 5637 5637 5633 5630 5627 5625 5623 5615 5613 5612 5613 5616 5614 5613 5619 5623 5625 5625 5622 5621 5618 5615 5613 5614 5616
5738 5728 5718 5711 5706 5699 5692 5681 5670 5660 5657 5654 5647 5640 5636 5632 5625 5621 5616 5613 5611 5611 5611 5612 5608 5602 5600 5600 5602 5600 5600 5602 5605 5607 5609 5609 5608 5607 5606 5604 5602 5601 5602
5728 5721 5712 5703 5695 5686 5676 5666 5660 5655 5655 5647 5641 5636 5633 5630 5629 5624 5618 5612 5606 5605 5605 5601 5595 5594 5593 5593 5591 5589 5589 5592 5591 5591 5591 5591 5588 5587 5586 5588 5587 5587 5589
5722 5712 5702 5696 5687 5679 5670 5662 5659 5652 5647 5639 5635 5634 5629 5624 5622 5620 5617 5613 5606 5601 5600 5601 5596 5589 5588 5587 5584 5585 5583 5582 5578 5577 5576 5574 5574 5572 5570 5568 5567 5566 5567
5711 5701 5692 5682 5678 5670 5662 5659 5654 5646 5643 5638 5631 5625 5620 5617 5615 5609 5606 5603 5597 5592 5586 5592 5594 5592 5588 5586 5584 5582 5578 5575 5572 5569 5566 5565 5563 5561 5559 5552 5545 5546 5552
5701 5692 5687 5681 5673 5664 5655 5645 5638 5634 5630 5623 5616 5614 5616 5608 5601 5596 5588 5584 5580 5575 5579 5584 5587 5584 5581 5579 5578 5577 5574 5569 5566 5561 5557 5555 5553 5550 5548 5544 5541 5541 5546
5694 5687 5679 5672 5663 5656 5650 5645 5635 5629 5619 5615 5609 5604 5597 5595 5589 5583 5579 5574 5571 5565 5571 5576 5577 5577 5576 5573 5569 5567 5565 5561 5554 5551 5548 5547 5544 5541 5538 5540 5541 5539 5544
5685 5675 5671 5664 5658 5650 5637 5632 5631 5618 5614 5607 5604 5596 5592 5586 5583 5581 5575 5571 5580 5570 5573 5572 5570 5568 5566 5565 5562 5559 5557 5553 5550 5546 5542 5539 5536 5533 5533 5534 5536 5538 5542
5675 5668 5662 5653 5643 5637 5633 5627 5618 5607 5601 5602 5600 5594 5590 5583 5578 5575 5570 5573 5573 5572 5571 5567 5564 5561 5560 5557 5555 5551 5546 5544 5540 5536 5535 5532 5529 5528 5527 5527 5532 5531 5533
5663 5658 5654 5644 5634 5630 5623 5614 5608 5609 5602 5599 5597 5593 5590 5583 5581 5579 5576 5571 5567 5565 5564 5561 5557 5553 5551 5548 5545 5541 5538 5536 5535 5534 5531 5526 5523 5520 5517 5522 5526 5530 5533
5657 5649 5644 5640 5634 5627 5618 5613 5610 5605 5601 5597 5593 5589 5578 5575 5575 5572 5566 5567 5564 5560 5557 5553 5549 5544 5542 5539 5534 5531 5528 5528 5527 5526 5523 5519 5512 5511 5515 5519 5522 5526 5529
5651 5647 5640 5635 5626 5620 5617 5611 5606 5601 5597 5592 5589 5585 5572 5571 5572 5570 5567 5564 5559 5553 5550 5544 5540 5537 5532 5527 5523 5520 5519 5518 5517 5513 5510 5510 5510 5511 5512 5516 5518 5521 5525
5645 5641 5634 5626 5620 5612 5610 5607 5603 5597 5592 5587 5583 5581 5577 5574 5570 5565 5560 5557 5551 5546 5541 5536 5532 5528 5523 5517 5512 5509 5508 5508 5506 5503 5506 5509 5510 5510 5511 5512 5511 5520 5523
5641 5635 5625 5619 5614 5611 5606 5601 5597 5587 5585 5585 5582 5577 5573 5568 5564 5558 5553 5547 5542 5539 5534 5529 5525 5519 5514 5509 5506 5503 5501 5498 5496 5499 5500 5502 5504 5507 5509 5507 5508 5516 5520
5632 5622 5619 5616 5610 5606 5601 5598 5594 5587 5584 5582 5578 5573 5569 5564 5558 5552 5546 5542 5539 5534 5528 5523 5519 5514 5509 5503 5499 5497 5494 5493 5493 5492 5495 5498 5501 5502 5504 5500 5505 5512 5515
5624 5618 5615 5611 5604 5599 5595 5592 5588 5586 5585 5581 5576 5572 5567 5561 5554 5548 5544 5539 5533 5528 5522 5518 5513 5507 5502 5500 5497 5493 5493 5493 5493 5492 5491 5495 5499 5501 5502 5500 5502 5509 5514